DELTA 1 DEB, 7014

Orbit data source: Space-Track

DELTA 1 DEB, 7014 is space debris in SSO originally from a launch on Tue, 06 Nov 1973 UTC launched from the Air Force Western Test Range (AFWTR). Debris objects in space refer to the collection of defunct objects orbiting the Earth. Examples of debris include non-operational satellites, rocket bodies, and fragments generated from explosions, collisions, or faulty payload assembly.

Loading next visibility...
Identifier
7014, 1973-086E
Orbit
SSO
Country
Flag of USUS
Related business
Manufacturer
Unknown
Mission
Spacecraft
Bus & Motor
Unknown
Mass
Unknown
Launch date (UTC)
1973-11-06 (53 years ago)
Launch vehicle
Unknown
Launch site
Air Force Western Test Range (AFWTR)
Object type
Payload
Rocket body
Debris
Shape & HBR
Unknown shape, 0.2 m
Radar Cross Section
Medium (>0.1 m² and <1 m²)

Expand to show TLE details & history
Last TLE update: 16 hours ago

TLE from 16 hours ago
0 DELTA 1 DEB
1 07014U 73086E   26263.14569237 -.00000072  00000-0 -30415-4 0  9990
2 07014 101.6870 342.9957 0403453  75.6242 288.9294 13.23262011548821
Epoch: 2026-09-20T03:29Z
TLE epoch observation values (Epoch: 2026-09-20T03:29:47.820Z)
Latitude
-0.00012°
Longitude
-68.4976°
Altitude
1,087.334 km
Speed
7.351 km/s
True Right ascension
22h 51m 58s
True Declination
0° 00' 00"
Sunlit
Object was in full shadow at epoch
Visualization orbit readout
Latitude
Unknown
Longitude
Unknown
Altitude
Unknown
Speed
Unknown
Apparent Right ascension
Unknown
Apparent Declination
Unknown
Sunlit
N/A
Visualization observer readout
Local Sidereal Time
12:54:03
Azimuth
Unknown
Elevation
Unknown
Doppler factor
Unknown
Orbital elements
Apogee altitude
1,474.248 km
Perigee altitude
865.207 km
Semi-major axis
7,547.864 km
Eccentricity
0.04035
Inclination
101.687°
RAAN
342.9957°
Arg. of periapsis
75.6242°
True anomaly
284.48797°
Mean anomaly
288.9294°
Eccentric anomaly
286.71546°
Mean motion
3.30984 °/min
Orbital period
108.77 mins
BSTAR
-0.000030415
Loading maneuver chart data...
Computing Atmospheric mass density...
Loading historical data...
Loading historical data...
Loading historical data...
Loading historical data...
Loading historical data...
Loading historical data...
Loading historical data...

Documentation

Showing up to 5 results
|